www.pogodaiklimat.ru

Погода и климат >> Архив погоды >> Беларусь >> Барановичи


АРХИВ ПОГОДЫ в Барановичах

Время (UTC), дата Ветер
(напр.,м/с)
 
Видим.   Явления Облачность Т
(С)
Тd
(С)
f
(%)
Тe
(С)
Тes
(С)
Комфортность P
(гПа)
Po
(гПа)
Тmin
(С)
Tmax
(С)
R
(мм)
R24
(мм)
S
(см)
18 12.09 Ю 2 10 км 8/0
[Ac und]
+20.3 +14.9 71 +23 +23 комфорт 1001.7 979.6 +25.4
21 12.09 З 3 6000 м слабый ливневой дождь 10/10 600 м
[Cb calv]
+16.2 +15.4 95 +16 +16 тепло 1003.2 980.7
00 13.09 СЗ 4 10 км {ливн. осадки} 9/9 600 м
[Sc]
+14.0 +12.7 92 +12 +12 тепло 1004.6 981.9
03 13.09 З 2 10 км 9/9 600 м
[Sc]
+13.9 +12.3 90 +13 +13 тепло 1004.8 982.1
06 13.09 ЮЗ 3 6000 м слабый ливневой дождь 10/10 600 м
[Cb calv]
+13.9 +12.6 92 +13 +13 тепло 1005.6 982.9 +13.5 6
09 13.09 ЮЗ 4 10 км {ливн. осадки} 8/8 1000 м
[Sc diur, vesp]
+15.2 +11.2 77 +14 +15 по сезону 1006.5 983.9
12 13.09 ЮЗ 4 10 км {ливн. осадки} 6/5 300 м
[Sc diur, vesp Ci fib]
+18.5 +8.9 54 +19 +21 тепло 1006.2 983.9
15 13.09 ЮЗ 5
{10}
10 км 3/3 1000 м
[Cu hum]
+17.9 +7.4 50 +18 +18 тепло 1006.1 983.7
18 13.09 Ю 3 10 км 4/0
[Ac As]
+14.2 +9.2 72 +13 +13 по сезону 1005.5 982.8 +19.2 0.3
21 13.09 Ю 4 10 км 9/0
[Ac As]
+14.6 +9.0 69 +13 +13 тепло 1003.4 980.8
00 14.09 Ю 6
{11}
10 км {ливн. осадки} 9/9 600 м
[Sc]
+14.2 +9.6 74 +12 +12 тепло 1002.3 979.7
03 14.09 Ю 3 10 км 3/0
[Ac und]
+12.8 +8.7 76 +11 +11 тепло 1002.4 979.7
06 14.09 Ю 4 10 км 9/9 600 м
[Sc]
+13.3 +9.0 75 +12 +12 тепло 1002.1 979.4 +11.7 0.4
09 14.09 Ю 5
{10}
10 км 9/9 600 м
[Sc]
+16.5 +11.1 70 +16 +16 тепло 1002.6 980.2
12 14.09 Ю 4 10 км в посл. час ливневой дождь 10/10 600 м
[Cb calv]
+16.6 +14.4 87 +16 +16 по сезону 1002.6 980.2
15 14.09 Ю 2
{10}
10 км 9/6 600 м
[Sc Ac As]
+17.6 +13.3 76 +18 +18 тепло 1001.4 979.1
18 14.09 штиль 0 10 км {ливн. осадки} 8/8 600 м
[Sc]
+15.0 +13.9 93 +15 +15 тепло 1001.5 979.0 +17.7 1
21 14.09 З 2 10 км {ливн. осадки} 9/9 600 м
[Sc]
+15.0 +13.8 93 +15 +15 тепло 1002.8 980.2
00 15.09 ЮЗ 2 10 км {ливн. осадки} 9/9 1000 м
[Sc]
+12.8 +10.8 88 +12 +12 тепло 1003.2 980.4
03 15.09 ЮЗ 4
{10}
8000 м слабый ливневой дождь 10/10 600 м
[Cb calv]
+10.5 +8.8 89 +8 +8 по сезону 1004.3 981.3
06 15.09 ЮЗ 6-10
{11}
10 км {ливн. осадки} 9/9 300 м
[Frnb]
+10.9 +8.4 85 +8 +8 по сезону 1005.6 982.6 +10.3 6
09 15.09 ЮЗ 7-12
{11}
10 км 10/9 600 м
[Cb calv]
+12.9 +7.0 67 +10 +10 по сезону 1007.6 984.7
12 15.09 ЮЗ 6-10
{14}
10 км 8/8 600 м
[Sc]
+14.6 +6.5 58 +13 +13 по сезону 1009.9 987.1
15 15.09 ЮЗ 4
{11}
10 км 9/9 600 м
[Sc]
+13.8 +6.1 60 +12 +13 по сезону 1011.6 988.7
18 15.09 ЮЗ 3 10 км 6/6 1000 м
[Sc]
+11.9 +6.7 70 +10 +10 по сезону 1014.2 991.1 +15.0
21 15.09 Ю 2 10 км ясно +9.9 +7.0 82 +8 +8 по сезону 1015.3 992.0
00 16.09 Ю 1 10 км ясно +8.5 +7.0 90 +8 +8 по сезону 1016.2 992.8
03 16.09 ЮВ 1 10 км 9/9 1000 м
[Sc]
+9.4 +7.8 90 +9 +9 по сезону 1016.9 993.5
06 16.09 ЮВ 2 10 км 5/0
[Ac und]
+10.6 +8.2 85 +9 +10 по сезону 1017.9 994.6 +8.0
09 16.09 ЮВ 4 10 км 6/0
[Ac und]
+15.7 +8.3 61 +15 +18 тепло 1018.6 995.7
12 16.09 Ю 4 10 км 8/4 600 м
[Sc Ac und]
+16.1 +6.3 52 +15 +17 по сезону 1018.0 995.2
15 16.09 ЮВ 2 10 км {ливн. осадки} 9/8 1000 м
[Sc Ac As]
+13.6 +10.5 82 +13 +13 по сезону 1018.4 995.4
18 16.09 В 2 10 км {ливн. осадки} 9/9 600 м
[Sc]
+12.3 +8.0 75 +11 +11 по сезону 1018.1 995.0 +17.3 0.3
21 16.09 В 2 10 км 9/9 1000 м
[Sc]
+12.6 +7.6 72 +12 +12 тепло 1016.9 993.8
00 17.09 В 2 10 км 8/8 1000 м
[Sc]
+12.4 +9.0 80 +12 +12 тепло 1015.1 992.0
03 17.09 В 1 10 км 8/8 1000 м
[Sc]
+11.5 +9.2 86 +11 +11 тепло 1014.0 990.9
06 17.09 В 2 10 км 8/0
[Ac As]
+12.3 +9.6 84 +11 +12 тепло 1013.3 990.3 +10.8
09 17.09 В 1 10 км {ливн. осадки} 9/9 1000 м
[Sc]
+14.3 +10.4 77 +15 +16 тепло 1013.1 990.2
12 17.09 В 1 7000 м слабый ливневой дождь 10/10 600 м
[Cb calv]
+14.3 +12.3 88 +15 +15 по сезону 1012.6 989.8
15 17.09 В 1 8000 м слабый ливневой дождь 10/10 600 м
[Cb calv]
+14.3 +13.4 94 +15 +15 тепло 1010.8 988.0
18 17.09 С 1 6000 м дымка {ливн. осадки} 10/10 300 м
[Frnb]
+14.4 +13.7 96 +15 +15 тепло 1008.4 985.7 +15.1 7
21 17.09 В 2 6000 м дымка 10/10 300 м
[Frnb]
+14.6 +13.9 96 +14 +14 тепло 1005.2 982.5
00 18.09 ЮВ 2 7000 м слабый ливневой дождь 10/10 600 м
[Cb calv]
+15.5 +14.8 96 +15 +15 тепло 1002.3 979.8
03 18.09 ЮВ 5
{10}
10 км {ливн. осадки} 8/8 600 м
[Sc]
+14.0 +11.7 86 +12 +12 тепло 999.7 977.1
06 18.09 Ю 7-11
{16}
9000 м слабый ливневой дождь 10/10 600 м
[Cb calv]
+11.2 +9.2 87 +8 +8 по сезону 999.6 976.8 +11.1 5
09 18.09 Ю 7-13
{14}
10 км в посл. час ливневой дождь 10/10 600 м
[Cb calv]
+11.5 +9.0 85 +8 +8 прохладно 1001.3 978.5
12 18.09 Ю 7-15
{16}
10 км {ливн. осадки} 10/10 600 м
[Cb calv]
+12.9 +8.1 73 +10 +10 прохладно 1002.4 979.7
15 18.09 ЮЗ 7-14
{15}
10 км в посл. час ливневой дождь 10/10 600 м
[Cb calv]
+12.3 +8.7 79 +9 +9 прохладно 1004.6 981.8
18 18.09 ЮЗ 8-13
{17}
10 км 9/9 600 м
[Sc]
+11.4 +6.0 69 +8 +8 прохладно 1008.5 985.5 +13.3 0.4
21 18.09 ЮЗ 5
{15}
10 км 9/9 600 м
[Sc]
+10.8 +6.9 77 +8 +8 по сезону 1011.8 988.7
00 19.09 ЮЗ 4
{11}
10 км 5/5 600 м
[Sc]
+9.8 +7.1 83 +7 +7 по сезону 1013.9 990.6
03 19.09 ЮЗ 3 10 км 4/4 600 м
[Sc]
+8.6 +7.3 92 +6 +6 по сезону 1015.0 991.6
06 19.09 ЮЗ 3 10 км 9/9 1000 м
[Sc]
+9.2 +7.5 89 +7 +7 по сезону 1016.3 992.9 +8.4
09 19.09 Ю 3 10 км 3/3 1000 м
[Cu hum]
+13.5 +7.4 67 +12 +17 по сезону 1017.4 994.4
12 19.09 З 4 10 км 5/3 1000 м
[Cu hum Ci sp]
+16.8 +4.2 43 +16 +19 тепло 1017.3 994.6
15 19.09 ЮЗ 1 10 км 6/3 1000 м
[Cu hum Cs]
+16.8 +5.0 46 +18 +18 тепло 1017.4 994.7

 

Местоположение метеостанции Барановичи (Брестская область, Беларусь): широта 53.13 долгота 27.97 высота над уровнем моря 193 м.

В архиве по умолчанию представлена погода в Барановичах за последнюю неделю. Архивные данные за месяц целиком и за предыдущие месяцы, начиная с января 2011 года, Вы можете получить, выбрав интересующий диапазон дат из раскрывающегося списка и нажав кнопку "Ввод!".

Внимание! Время в таблицах - всемирное. Для получения местного времени необходимо прибавить поправку, которая в Барановичах равна 3 ч.

Смотрите также архив погоды в соседних городах и на ближайших метеорологических станциях:

Погода в Слуцке (Минская область, Беларусь) (30 км)
Погода в Марьиной Горке (Минская область, Беларусь) (37 км)
Погода в Бобруйске (Могилевская область, Беларусь) (78 км)
Погода в Октябре (Гомельская область, Беларусь) (82 км)
Погода в Столбцах (Минская область, Беларусь) (91 км)
Погода в Минске (город Минск, Беларусь) (92 км)
Погода в Кличеве (Могилевская область, Беларусь) (99 км)
Погода в Житковичах (Гомельская область, Беларусь) (101 км)
Погода в Березино (Минская область, Беларусь) (103 км)
Погода в Ганцевичах (Брестская область, Беларусь) (111 км)

Пояснения к столбцам:

Ветер - указаны скорость ветра в м/с - средняя за 10 мин, порывы в срок и между сроками (в фигурных скобках) и направление, откуда дует ветер: С - северный, СВ - северо-восточный, В - восточный, ЮВ - юго-восточный, Ю - южный, ЮЗ - юго-западный, З - западный, СЗ - северо-западный.
Видимость - горизонтальная дальность видимости в метрах или километрах. При видимости от 1 до 10 км при отсутствии осадков обычно наблюдается дымка, при ухудшении видимости до 1 км и менее - туман. В сухую погоду видимость может ухудшаться дымом, пылью или мглою.
Явления - указаны атмосферные явления, наблюдавшиеся в срок или в последний час перед сроком; фигурными скобками обозначены явления, наблюдавшиеся между сроками (за 1-3 часа до срока); квадратными скобками обозначены град или гололедные отложения с указанием их диаметра в мм.
Облачность - указаны через наклонную черту общая и нижняя облачность в баллах и высота нижней границы облаков в метрах; квадратными скобками обозначены формы облаков: Ci - перистые, Cs - перисто-слоистые, Cc - перисто-кучевые, Ac - высококучевые, As - высокослоистые, Sc - слоисто-кучевые, Ns - слоисто-дождевые, Cu - кучевые, Cb - кучево-дождевые. Подробнее классификацию облаков см. в Атласе облаков (PDF).
T - Температура воздуха - температура, измеренная на высоте 2 м над землей.
Td - Температура точки росы - температура, при понижении до которой содержащийся в воздухе водяной пар достигнет насыщения.
f - Относительная влажность воздуха - влажноcть воздуха, измеренная на высоте 2 м над землей.
Te - Эффективная температура - температура, которую ощущает одетый по сезону человек в тени. Характеристика душности погоды. При расчете учитывается влияние влажности воздуха и скорости ветра на теплоощущения человека.
Tes - Эффективная температура на солнце - температура, которую ощущает человек, с поправкой на солнечный нагрев. Характеристика знойности погоды. Зависит от высоты солнца над горизонтом, облачности и скорости ветра. Ночью, в пасмурную погоду, а также при ветре 12 м/с и более поправка равна нулю.
P - Атмосферное давление - приведенное к уровню моря атмосферное давление.
Po - Атмосферное давление - измеренное на уровне метеостанции атмосферное давление.
Tmin - Минимальная температура - минимум температуры воздуха на высоте 2 м над землей.
Tmax - Максимальная температура - максимум температуры воздуха на высоте 2 м над землей.
R - Количество осадков - Количество выпавших осадков за период времени, мм. При наведении курсора мыши на число - период времени, за который выпало указанное количество осадков.
R24 - Количество осадков - Количество выпавших осадков за 24 часа, мм.
S - Снежный покров - Высота снежного покрова, см. При наведении курсора мыши на число - состояние снежного покрова и степень покрытия местности в баллах.